,,Stat5,,Stat1,,Stat2,,Stat3,,Stat4,,Wind1,,Wind1,
time,status,PA1M_AVG,status,PR1M_SUM,status,RH1M_AVG,status,SR1M_AVG,status,TA1M_AVG,status,W1dAve1m,status,W1sAve1m,
2001-11-27, 00:00:00,VALID,919.069,VALID,0,VALID,98.365,VALID,0.101885,VALID,19.1186,VALID,102,VALID,0.41867,
2001-11-27, 00:01:00,VALID,919.042,VALID,0,VALID,98.412,VALID,0.0849042,VALID,19.1121,VALID,87,VALID,0.390855,
2001-11-27, 00:02:00,VALID,919.018,VALID,0,VALID,98.4578,VALID,0.0679233,VALID,19.1354,VALID,45,VALID,0.388775,
2001-11-27, 00:03:00,VALID,918.999,VALID,0,VALID,98.4883,VALID,0.0509425,VALID,19.1282,VALID,67,VALID,0.366536,
2001-11-27, 00:04:00,VALID,918.975,VALID,0,VALID,98.5036,VALID,0.0679233,VALID,19.1384,VALID,69,VALID,0.474095,
2001-11-27, 00:05:00,VALID,918.969,VALID,0.2,VALID,98.4947,VALID,0.0849042,VALID,19.1352,VALID,47,VALID,0.361486,
2001-11-27, 00:06:00,VALID,918.978,VALID,0,VALID,98.5672,VALID,0.0849042,VALID,19.1479,VALID,29,VALID,0.287305,
2001-11-27, 00:07:00,VALID,918.994,VALID,0,VALID,98.6066,VALID,0.0679233,VALID,19.1841,VALID,15,VALID,0.394942,
2001-11-27, 00:08:00,VALID,919.021,VALID,0,VALID,98.618,VALID,0.0849042,VALID,19.1899,VALID,353,VALID,0.554688,
2001-11-27, 00:09:00,VALID,919.056,VALID,0,VALID,98.5583,VALID,0.0849042,VALID,19.1608,VALID,331,VALID,0.626562,
2001-11-27, 00:10:00,VALID,919.071,VALID,0,VALID,98.4883,VALID,0.0509425,VALID,19.129,VALID,321,VALID,0.511218,
2001-11-27, 00:11:00,VALID,919.058,VALID,0,VALID,98.5061,VALID,0.0849042,VALID,19.1059,VALID,323,VALID,0.235403,
2001-11-27, 00:12:00,VALID,919.044,VALID,0,VALID,98.5379,VALID,0.101885,VALID,19.1094,VALID,13,VALID,0.512891,
2001-11-27, 00:13:00,VALID,918.957,VALID,0,VALID,98.5977,VALID,0.0679233,VALID,19.1292,VALID,41,VALID,0.841797,
2001-11-27, 00:14:00,VALID,918.893,VALID,0,VALID,98.5366,VALID,0.0849042,VALID,19.1121,VALID,61,VALID,1.21995,
2001-11-27, 00:15:00,VALID,918.824,VALID,0.2,VALID,98.4972,VALID,0.0339617,VALID,19.0897,VALID,63,VALID,1.1875,
2001-11-27, 00:16:00,VALID,918.791,VALID,0,VALID,98.5659,VALID,0.0849042,VALID,19.0897,VALID,76,VALID,0.664844,
2001-11-27, 00:17:00,VALID,918.791,VALID,0,VALID,98.5633,VALID,0.0339617,VALID,19.0741,VALID,77,VALID,0.414063,
2001-11-27, 00:18:00,VALID,918.823,VALID,0,VALID,98.59,VALID,0.0849042,VALID,19.0542,VALID,74,VALID,0.277444,
2001-11-27, 00:19:00,VALID,918.824,VALID,0,VALID,98.6053,VALID,0.0509425,VALID,19.0515,VALID,115,VALID,0.298931,
2001-11-27, 00:20:00,VALID,918.842,VALID,0,VALID,98.6473,VALID,0.0679233,VALID,19.0512,VALID,132,VALID,0.212305,
2001-11-27, 00:21:00,VALID,918.834,VALID,0,VALID,98.6676,VALID,0.0679233,VALID,19.0579,VALID,125,VALID,0.352539,
2001-11-27, 00:22:00,VALID,918.804,VALID,0,VALID,98.6396,VALID,0.0679233,VALID,19.0448,VALID,99,VALID,0.538061,
2001-11-27, 00:23:00,VALID,918.778,VALID,0,VALID,98.6333,VALID,0.0169808,VALID,19.0395,VALID,107,VALID,0.510896,
2001-11-27, 00:24:00,VALID,918.742,VALID,0,VALID,98.6625,VALID,0,VALID,19.0259,VALID,124,VALID,0.429492,
2001-11-27, 00:25:00,VALID,918.706,VALID,0,VALID,98.6829,VALID,0.0849042,VALID,19.0321,VALID,137,VALID,0.338672,
2001-11-27, 00:26:00,VALID,918.683,VALID,0,VALID,98.7019,VALID,0.0339617,VALID,19.042,VALID,165,VALID,0.446514,
2001-11-27, 00:27:00,VALID,918.682,VALID,0,VALID,98.7121,VALID,0.0339617,VALID,19.0522,VALID,149,VALID,0.379112,
2001-11-27, 00:28:00,VALID,918.661,VALID,0,VALID,98.7172,VALID,0.0509425,VALID,19.0353,VALID,119,VALID,0.351367,
2001-11-27, 00:29:00,VALID,918.622,VALID,0,VALID,98.7261,VALID,0.0339617,VALID,19.0487,VALID,64,VALID,0.611328,
2001-11-27, 00:30:00,VALID,918.584,VALID,0,VALID,98.7503,VALID,0.0509425,VALID,19.0649,VALID,67,VALID,0.695713,
2001-11-27, 00:31:00,VALID,918.548,VALID,0,VALID,98.7592,VALID,0.0339617,VALID,19.0646,VALID,70,VALID,0.675164,
2001-11-27, 00:32:00,VALID,918.5,VALID,0,VALID,98.735,VALID,0.0509425,VALID,19.0674,VALID,90,VALID,0.793555,
2001-11-27, 00:33:00,VALID,918.461,VALID,0,VALID,98.6752,VALID,0.0339617,VALID,19.0351,VALID,110,VALID,1.06875,
2001-11-27, 00:34:00,VALID,918.414,VALID,0,VALID,98.6638,VALID,0.0849042,VALID,19.0058,VALID,101,VALID,1.22776,
2001-11-27, 00:35:00,VALID,918.381,VALID,0,VALID,98.6256,VALID,-0.0679233,VALID,18.9721,VALID,99,VALID,1.16591,
2001-11-27, 00:36:00,VALID,918.34,VALID,0,VALID,98.6358,VALID,-0.0509425,VALID,18.9532,VALID,84,VALID,0.716602,
2001-11-27, 00:37:00,VALID,918.316,VALID,0,VALID,98.6778,VALID,-0.0339617,VALID,18.9463,VALID,73,VALID,0.830664,
2001-11-27, 00:38:00,VALID,918.303,VALID,0,VALID,98.6651,VALID,-0.0509425,VALID,18.9366,VALID,83,VALID,0.549079,
2001-11-27, 00:39:00,VALID,918.288,VALID,0,VALID,98.632,VALID,-0.0509425,VALID,18.9207,VALID,83,VALID,0.70662,
2001-11-27, 00:40:00,VALID,918.286,VALID,0,VALID,98.6142,VALID,-0.0679233,VALID,18.8944,VALID,107,VALID,0.677148,
2001-11-27, 00:41:00,VALID,918.285,VALID,0,VALID,98.604,VALID,-0.0339617,VALID,18.878,VALID,123,VALID,0.918945,
2001-11-27, 00:42:00,VALID,918.276,VALID,0,VALID,98.6269,VALID,-0.0849042,VALID,18.872,VALID,132,VALID,0.629006,
2001-11-27, 00:43:00,VALID,918.276,VALID,0,VALID,98.6511,VALID,-0.0679233,VALID,18.8693,VALID,146,VALID,0.650699,
2001-11-27, 00:44:00,VALID,918.278,VALID,0,VALID,98.6473,VALID,-0.0679233,VALID,18.8725,VALID,151,VALID,0.98125,
2001-11-27, 00:45:00,VALID,918.276,VALID,0,VALID,98.6307,VALID,-0.0509425,VALID,18.8658,VALID,141,VALID,1.07402,
2001-11-27, 00:46:00,VALID,918.262,VALID,0,VALID,98.6498,VALID,-0.0509425,VALID,18.8598,VALID,138,VALID,0.654848,
2001-11-27, 00:47:00,VALID,918.258,VALID,0,VALID,98.6587,VALID,-0.0849042,VALID,18.8459,VALID,139,VALID,0.999178,
2001-11-27, 00:48:00,VALID,918.227,VALID,0,VALID,98.6587,VALID,-0.0509425,VALID,18.8427,VALID,103,VALID,0.534961,
2001-11-27, 00:49:00,VALID,918.203,VALID,0,VALID,98.6803,VALID,-0.0679233,VALID,18.8533,VALID,117,VALID,0.705469,
2001-11-27, 00:50:00,VALID,918.187,VALID,0,VALID,98.7121,VALID,0,VALID,18.8452,VALID,135,VALID,0.663862,
2001-11-27, 00:51:00,VALID,918.173,VALID,0,VALID,98.7375,VALID,-0.0679233,VALID,18.8496,VALID,138,VALID,0.784951,
2001-11-27, 00:52:00,VALID,918.155,VALID,0,VALID,98.7401,VALID,-0.101885,VALID,18.8466,VALID,132,VALID,0.555273,
2001-11-27, 00:53:00,VALID,918.138,VALID,0,VALID,98.7414,VALID,-0.101885,VALID,18.837,VALID,125,VALID,0.508398,
2001-11-27, 00:54:00,VALID,918.143,VALID,0,VALID,98.7668,VALID,-0.101885,VALID,18.8404,VALID,94,VALID,0.360777,
2001-11-27, 00:55:00,VALID,918.139,VALID,0,VALID,98.7871,VALID,-0.101885,VALID,18.834,VALID,107,VALID,0.448602,
2001-11-27, 00:56:00,VALID,918.147,VALID,0,VALID,98.7986,VALID,-0.0509425,VALID,18.8201,VALID,122,VALID,0.564648,
2001-11-27, 00:57:00,VALID,918.146,VALID,0,VALID,98.796,VALID,-0.0679233,VALID,18.8176,VALID,115,VALID,0.697266,
2001-11-27, 00:58:00,VALID,918.124,VALID,0,VALID,98.8126,VALID,-0.0509425,VALID,18.8079,VALID,107,VALID,0.454928,
2001-11-27, 00:59:00,VALID,918.123,VALID,0,VALID,98.838,VALID,-0.0679233,VALID,18.8042,VALID,117,VALID,0.643914,
2001-11-27, 01:00:00,VALID,918.104,VALID,0,VALID,98.8698,VALID,-0.0849042,VALID,18.8176,VALID,127,VALID,1.04043,
2001-11-27, 01:01:00,VALID,918.09,VALID,0,VALID,98.8863,VALID,-0.0679233,VALID,18.8079,VALID,99,VALID,0.876758,
2001-11-27, 01:02:00,VALID,918.08,VALID,0,VALID,98.8736,VALID,-0.0509425,VALID,18.8044,VALID,106,VALID,0.722155,
2001-11-27, 01:03:00,VALID,918.067,VALID,0,VALID,98.8736,VALID,-0.101885,VALID,18.7947,VALID,117,VALID,0.786184,
2001-11-27, 01:04:00,VALID,918.052,VALID,0,VALID,98.8838,VALID,-0.0849042,VALID,18.7915,VALID,114,VALID,0.833984,
2001-11-27, 01:05:00,VALID,918.032,VALID,0,VALID,98.8838,VALID,0.0169808,VALID,18.7705,VALID,100,VALID,0.982617,
2001-11-27, 01:06:00,VALID,918.011,VALID,0,VALID,98.8685,VALID,0.0509425,VALID,18.7635,VALID,106,VALID,0.882212,
2001-11-27, 01:07:00,VALID,917.984,VALID,0,VALID,98.8571,VALID,0.0339617,VALID,18.7707,VALID,99,VALID,0.741365,
2001-11-27, 01:08:00,VALID,917.961,VALID,0,VALID,98.8838,VALID,0.0679233,VALID,18.7772,VALID,117,VALID,0.996094,
2001-11-27, 01:09:00,VALID,917.921,VALID,0,VALID,98.88,VALID,0.0509425,VALID,18.7675,VALID,114,VALID,0.855469,
2001-11-27, 01:10:00,VALID,917.904,VALID,0,VALID,98.8558,VALID,0.0849042,VALID,18.7772,VALID,128,VALID,0.705529,
2001-11-27, 01:11:00,VALID,917.873,VALID,0,VALID,98.8469,VALID,0.0849042,VALID,18.7705,VALID,133,VALID,0.825452,
2001-11-27, 01:12:00,VALID,917.856,VALID,0,VALID,98.8431,VALID,0.0169808,VALID,18.7712,VALID,127,VALID,0.75918,
2001-11-27, 01:13:00,VALID,917.82,VALID,0,VALID,98.8367,VALID,0,VALID,18.7608,VALID,125,VALID,0.421289,
2001-11-27, 01:14:00,VALID,917.8,VALID,0,VALID,98.8215,VALID,0.0169808,VALID,18.7709,VALID,131,VALID,0.893029,
2001-11-27, 01:15:00,VALID,917.767,VALID,0,VALID,98.8037,VALID,0.0339617,VALID,18.761,VALID,134,VALID,0.835938,
2001-11-27, 01:16:00,VALID,917.736,VALID,0,VALID,98.7808,VALID,0.0339617,VALID,18.7509,VALID,141,VALID,1.0043,
2001-11-27, 01:17:00,VALID,917.701,VALID,0,VALID,98.7693,VALID,0.0849042,VALID,18.7543,VALID,146,VALID,1.09785,
2001-11-27, 01:18:00,VALID,917.677,VALID,0,VALID,98.7541,VALID,0.0509425,VALID,18.7615,VALID,153,VALID,1.02264,
2001-11-27, 01:19:00,VALID,917.653,VALID,0,VALID,98.7617,VALID,0.0339617,VALID,18.7575,VALID,148,VALID,1.09992,
2001-11-27, 01:20:00,VALID,917.653,VALID,0,VALID,98.7439,VALID,-0.0509425,VALID,18.7562,VALID,145,VALID,1.01992,
2001-11-27, 01:21:00,VALID,917.651,VALID,0,VALID,98.7541,VALID,-0.0679233,VALID,18.7726,VALID,148,VALID,0.817969,
2001-11-27, 01:22:00,VALID,917.661,VALID,0,VALID,98.7528,VALID,-0.0849042,VALID,18.7527,VALID,135,VALID,0.962139,
2001-11-27, 01:23:00,VALID,917.658,VALID,0,VALID,98.7668,VALID,-0.0679233,VALID,18.7597,VALID,141,VALID,0.969984,
2001-11-27, 01:24:00,VALID,917.657,VALID,0,VALID,98.7693,VALID,-0.0509425,VALID,18.7597,VALID,143,VALID,0.571875,
2001-11-27, 01:25:00,VALID,917.648,VALID,0,VALID,98.7592,VALID,-0.0339617,VALID,18.7431,VALID,144,VALID,0.683398,
2001-11-27, 01:26:00,VALID,917.63,VALID,0,VALID,98.7782,VALID,-0.0849042,VALID,18.747,VALID,144,VALID,1.07612,
2001-11-27, 01:27:00,VALID,917.625,VALID,0,VALID,98.796,VALID,-0.0339617,VALID,18.7401,VALID,145,VALID,1.24013,
2001-11-27, 01:28:00,VALID,917.582,VALID,0,VALID,98.8202,VALID,-0.0679233,VALID,18.7401,VALID,142,VALID,0.972461,
2001-11-27, 01:29:00,VALID,917.554,VALID,0,VALID,98.8151,VALID,-0.0679233,VALID,18.7368,VALID,142,VALID,1.06328,
2001-11-27, 01:30:00,VALID,917.528,VALID,0,VALID,98.8227,VALID,-0.0509425,VALID,18.7338,VALID,138,VALID,0.990585,
2001-11-27, 01:31:00,VALID,917.488,VALID,0,VALID,98.8367,VALID,-0.0679233,VALID,18.7204,VALID,136,VALID,1.13137,
2001-11-27, 01:32:00,VALID,917.467,VALID,0,VALID,98.8355,VALID,-0.0169808,VALID,18.7137,VALID,129,VALID,0.849023,
2001-11-27, 01:33:00,VALID,917.454,VALID,0,VALID,98.8278,VALID,0,VALID,18.7274,VALID,120,VALID,0.695508,
2001-11-27, 01:34:00,VALID,917.434,VALID,0,VALID,98.8342,VALID,-0.0679233,VALID,18.7207,VALID,132,VALID,0.807893,
2001-11-27, 01:35:00,VALID,917.43,VALID,0,VALID,98.8418,VALID,-0.0509425,VALID,18.7237,VALID,134,VALID,0.839844,
2001-11-27, 01:36:00,VALID,917.409,VALID,0,VALID,98.8266,VALID,-0.0169808,VALID,18.7271,VALID,133,VALID,1.05137,
2001-11-27, 01:37:00,VALID,917.403,VALID,0,VALID,98.7986,VALID,-0.0169808,VALID,18.7269,VALID,140,VALID,0.768555,
2001-11-27, 01:38:00,VALID,917.397,VALID,0,VALID,98.7808,VALID,-0.0339617,VALID,18.7264,VALID,135,VALID,0.951322,
2001-11-27, 01:39:00,VALID,917.402,VALID,0,VALID,98.7325,VALID,0,VALID,18.7366,VALID,121,VALID,0.855469,
2001-11-27, 01:40:00,VALID,917.389,VALID,0,VALID,98.6867,VALID,-0.0169808,VALID,18.7403,VALID,115,VALID,1.28652,
2001-11-27, 01:41:00,VALID,917.359,VALID,0,VALID,98.6358,VALID,-0.0339617,VALID,18.7371,VALID,122,VALID,1.33379,
2001-11-27, 01:42:00,VALID,917.342,VALID,0,VALID,98.6269,VALID,-0.0679233,VALID,18.7435,VALID,102,VALID,1.21935,
2001-11-27, 01:43:00,VALID,917.327,VALID,0,VALID,98.5913,VALID,0,VALID,18.7401,VALID,117,VALID,0.969778,
2001-11-27, 01:44:00,VALID,917.295,VALID,0,VALID,98.5557,VALID,0,VALID,18.717,VALID,124,VALID,0.921094,
2001-11-27, 01:45:00,VALID,917.278,VALID,0,VALID,98.5672,VALID,-0.0169808,VALID,18.7239,VALID,126,VALID,1.20918,
2001-11-27, 01:46:00,VALID,917.253,VALID,0,VALID,98.5519,VALID,-0.0339617,VALID,18.7145,VALID,115,VALID,1.04808,
2001-11-27, 01:47:00,VALID,917.242,VALID,0,VALID,98.5315,VALID,-0.0679233,VALID,18.7013,VALID,93,VALID,0.740543,
2001-11-27, 01:48:00,VALID,917.241,VALID,0,VALID,98.5074,VALID,0,VALID,18.6787,VALID,74,VALID,0.536719,
2001-11-27, 01:49:00,VALID,917.21,VALID,0,VALID,98.5176,VALID,-0.0509425,VALID,18.669,VALID,78,VALID,0.754687,
2001-11-27, 01:50:00,VALID,917.201,VALID,0,VALID,98.5455,VALID,-0.0849042,VALID,18.6459,VALID,93,VALID,0.925881,
2001-11-27, 01:51:00,VALID,917.178,VALID,0,VALID,98.5494,VALID,-0.0509425,VALID,18.6499,VALID,101,VALID,0.869449,
2001-11-27, 01:52:00,VALID,917.184,VALID,0,VALID,98.5837,VALID,-0.0169808,VALID,18.6434,VALID,106,VALID,0.879297,
2001-11-27, 01:53:00,VALID,917.179,VALID,0,VALID,98.5951,VALID,-0.0509425,VALID,18.6272,VALID,113,VALID,0.938672,
2001-11-27, 01:54:00,VALID,917.17,VALID,0,VALID,98.6435,VALID,-0.0849042,VALID,18.6272,VALID,120,VALID,0.779848,
2001-11-27, 01:55:00,VALID,917.19,VALID,0,VALID,98.6371,VALID,-0.0849042,VALID,18.6143,VALID,129,VALID,0.388363,
2001-11-27, 01:56:00,VALID,917.185,VALID,0,VALID,98.6574,VALID,0,VALID,18.5977,VALID,108,VALID,0.616016,
2001-11-27, 01:57:00,VALID,917.183,VALID,0,VALID,98.6638,VALID,-0.0169808,VALID,18.5848,VALID,114,VALID,0.986914,
2001-11-27, 01:58:00,VALID,917.167,VALID,0,VALID,98.6536,VALID,-0.0339617,VALID,18.5749,VALID,109,VALID,1.01442,
2001-11-27, 01:59:00,VALID,917.179,VALID,0,VALID,98.6536,VALID,-0.0509425,VALID,18.5853,VALID,108,VALID,0.92722,
2001-11-27, 02:00:00,VALID,917.197,VALID,0,VALID,98.6562,VALID,-0.0339617,VALID,18.5857,VALID,127,VALID,1.07344,
2001-11-27, 02:01:00,VALID,917.198,VALID,0,VALID,98.6384,VALID,-0.0849042,VALID,18.5855,VALID,119,VALID,0.782812,
2001-11-27, 02:02:00,VALID,917.193,VALID,0,VALID,98.6231,VALID,-0.0679233,VALID,18.5758,VALID,130,VALID,0.60637,
2001-11-27, 02:03:00,VALID,917.197,VALID,0,VALID,98.6053,VALID,-0.0339617,VALID,18.5853,VALID,140,VALID,0.534745,
2001-11-27, 02:04:00,VALID,917.202,VALID,0,VALID,98.6282,VALID,-0.0509425,VALID,18.5825,VALID,125,VALID,0.899023,
2001-11-27, 02:05:00,VALID,917.205,VALID,0,VALID,98.6015,VALID,-0.0849042,VALID,18.5788,VALID,121,VALID,0.794141,
2001-11-27, 02:06:00,VALID,917.215,VALID,0,VALID,98.5888,VALID,-0.0339617,VALID,18.5922,VALID,108,VALID,0.499599,
2001-11-27, 02:07:00,VALID,917.222,VALID,0,VALID,98.5417,VALID,-0.0339617,VALID,18.5627,VALID,91,VALID,0.628289,
2001-11-27, 02:08:00,VALID,917.208,VALID,0,VALID,98.5163,VALID,-0.0679233,VALID,18.5723,VALID,90,VALID,0.63418,
2001-11-27, 02:09:00,VALID,917.197,VALID,0,VALID,98.4807,VALID,-0.0509425,VALID,18.55,VALID,102,VALID,0.635547,
2001-11-27, 02:10:00,VALID,917.189,VALID,0,VALID,98.4781,VALID,-0.0509425,VALID,18.5567,VALID,89,VALID,0.724359,
2001-11-27, 02:11:00,VALID,917.175,VALID,0,VALID,98.4718,VALID,-0.0339617,VALID,18.5433,VALID,99,VALID,0.810033,
2001-11-27, 02:12:00,VALID,917.169,VALID,0,VALID,98.4642,VALID,-0.0509425,VALID,18.5567,VALID,121,VALID,0.879687,
2001-11-27, 02:13:00,VALID,917.153,VALID,0,VALID,98.4909,VALID,-0.0339617,VALID,18.5564,VALID,115,VALID,1.01152,
2001-11-27, 02:14:00,VALID,917.117,VALID,0,VALID,98.468,VALID,-0.0679233,VALID,18.5599,VALID,111,VALID,1.19952,
2001-11-27, 02:15:00,VALID,917.095,VALID,0,VALID,98.4642,VALID,-0.0679233,VALID,18.5497,VALID,108,VALID,1.07031,
2001-11-27, 02:16:00,VALID,917.085,VALID,0,VALID,98.4387,VALID,-0.0509425,VALID,18.5368,VALID,114,VALID,0.991797,
2001-11-27, 02:17:00,VALID,917.077,VALID,0,VALID,98.468,VALID,-0.0679233,VALID,18.5403,VALID,119,VALID,1.4293,
2001-11-27, 02:18:00,VALID,917.052,VALID,0,VALID,98.4387,VALID,-0.0849042,VALID,18.5467,VALID,106,VALID,1.27945,
2001-11-27, 02:19:00,VALID,917.028,VALID,0,VALID,98.4324,VALID,-0.101885,VALID,18.5599,VALID,91,VALID,1.16797,
2001-11-27, 02:20:00,VALID,917.008,VALID,0,VALID,98.3701,VALID,0.0169808,VALID,18.5624,VALID,90,VALID,1.16816,
2001-11-27, 02:21:00,VALID,916.988,VALID,0,VALID,98.2645,VALID,0.0339617,VALID,18.5555,VALID,98,VALID,1.0668,
2001-11-27, 02:22:00,VALID,916.988,VALID,0,VALID,98.234,VALID,0.0169808,VALID,18.549,VALID,105,VALID,1.10377,
2001-11-27, 02:23:00,VALID,916.948,VALID,0,VALID,98.2429,VALID,0.0169808,VALID,18.5423,VALID,109,VALID,1.06229,
2001-11-27, 02:24:00,VALID,916.934,VALID,0,VALID,98.2887,VALID,0.0339617,VALID,18.5488,VALID,139,VALID,1.07109,
2001-11-27, 02:25:00,VALID,916.935,VALID,0,VALID,98.295,VALID,0.0509425,VALID,18.5446,VALID,135,VALID,1.21016,
2001-11-27, 02:26:00,VALID,916.922,VALID,0,VALID,98.2836,VALID,0.0679233,VALID,18.5548,VALID,138,VALID,1.53886,
2001-11-27, 02:27:00,VALID,916.897,VALID,0,VALID,98.2836,VALID,0.0169808,VALID,18.5684,VALID,136,VALID,1.27076,
2001-11-27, 02:28:00,VALID,916.892,VALID,0,VALID,98.2721,VALID,0.0509425,VALID,18.5548,VALID,142,VALID,1.17695,
2001-11-27, 02:29:00,VALID,916.874,VALID,0,VALID,98.2721,VALID,0.0509425,VALID,18.5679,VALID,144,VALID,1.33164,
2001-11-27, 02:30:00,VALID,916.88,VALID,0,VALID,98.3001,VALID,0.0339617,VALID,18.5649,VALID,142,VALID,1.46554,
2001-11-27, 02:31:00,VALID,916.853,VALID,0,VALID,98.351,VALID,0.0169808,VALID,18.5811,VALID,136,VALID,1.38569,
2001-11-27, 02:32:00,VALID,916.835,VALID,0,VALID,98.3624,VALID,0.0339617,VALID,18.5876,VALID,131,VALID,1.34648,
2001-11-27, 02:33:00,VALID,916.812,VALID,0,VALID,98.3828,VALID,0.0169808,VALID,18.5972,VALID,127,VALID,1.1623,
2001-11-27, 02:34:00,VALID,916.788,VALID,0,VALID,98.3764,VALID,0.0339617,VALID,18.5935,VALID,120,VALID,1.52183,
2001-11-27, 02:35:00,VALID,916.769,VALID,0,VALID,98.3408,VALID,-0.0169808,VALID,18.6083,VALID,120,VALID,1.33717,
2001-11-27, 02:36:00,VALID,916.745,VALID,0,VALID,98.3535,VALID,-0.0339617,VALID,18.6044,VALID,120,VALID,1.10977,
2001-11-27, 02:37:00,VALID,916.752,VALID,0,VALID,98.3637,VALID,0,VALID,18.6148,VALID,133,VALID,1.36523,
2001-11-27, 02:38:00,VALID,916.722,VALID,0,VALID,98.3713,VALID,0,VALID,18.6081,VALID,132,VALID,1.3127,
2001-11-27, 02:39:00,VALID,916.728,VALID,0,VALID,98.3739,VALID,0.0169808,VALID,18.6116,VALID,138,VALID,1.31106,
2001-11-27, 02:40:00,VALID,916.728,VALID,0,VALID,98.3942,VALID,-0.0509425,VALID,18.6016,VALID,145,VALID,1.18379,
2001-11-27, 02:41:00,VALID,916.736,VALID,0,VALID,98.4298,VALID,-0.0509425,VALID,18.5986,VALID,147,VALID,1.21855,
2001-11-27, 02:42:00,VALID,916.734,VALID,0,VALID,98.4362,VALID,-0.0169808,VALID,18.5986,VALID,141,VALID,0.835737,
2001-11-27, 02:43:00,VALID,916.745,VALID,0,VALID,98.4553,VALID,-0.0339617,VALID,18.5986,VALID,118,VALID,1.30572,
2001-11-27, 02:44:00,VALID,916.738,VALID,0,VALID,98.4362,VALID,-0.0509425,VALID,18.5957,VALID,120,VALID,0.75293,
2001-11-27, 02:45:00,VALID,916.731,VALID,0,VALID,98.4603,VALID,-0.0339617,VALID,18.5827,VALID,122,VALID,0.963086,
2001-11-27, 02:46:00,VALID,916.736,VALID,0,VALID,98.4692,VALID,-0.0169808,VALID,18.5954,VALID,134,VALID,1.07071,
2001-11-27, 02:47:00,VALID,916.74,VALID,0,VALID,98.4731,VALID,0,VALID,18.5957,VALID,140,VALID,1.33162,
2001-11-27, 02:48:00,VALID,916.73,VALID,0,VALID,98.4591,VALID,-0.0169808,VALID,18.5949,VALID,138,VALID,1.06777,
2001-11-27, 02:49:00,VALID,916.731,VALID,0,VALID,98.4603,VALID,0,VALID,18.6208,VALID,146,VALID,1.50527,
2001-11-27, 02:50:00,VALID,916.733,VALID,0,VALID,98.4375,VALID,0,VALID,18.6337,VALID,146,VALID,1.45994,
2001-11-27, 02:51:00,VALID,916.724,VALID,0,VALID,98.4031,VALID,0,VALID,18.6499,VALID,142,VALID,1.85732,
2001-11-27, 02:52:00,VALID,916.704,VALID,0,VALID,98.3523,VALID,0,VALID,18.666,VALID,139,VALID,1.28535,
2001-11-27, 02:53:00,VALID,916.67,VALID,0,VALID,98.3116,VALID,0.0169808,VALID,18.6697,VALID,130,VALID,1.38072,
2001-11-27, 02:54:00,VALID,916.634,VALID,0,VALID,98.2798,VALID,0,VALID,18.6697,VALID,125,VALID,1.40565,
2001-11-27, 02:55:00,VALID,916.597,VALID,0,VALID,98.22,VALID,0,VALID,18.6695,VALID,112,VALID,1.31353,
2001-11-27, 02:56:00,VALID,916.582,VALID,0,VALID,98.192,VALID,0,VALID,18.6759,VALID,117,VALID,1.32773,
2001-11-27, 02:57:00,VALID,916.573,VALID,0,VALID,98.1552,VALID,0,VALID,18.6792,VALID,112,VALID,0.90293,
2001-11-27, 02:58:00,VALID,916.571,VALID,0,VALID,98.159,VALID,0.0169808,VALID,18.6725,VALID,118,VALID,0.639423,
2001-11-27, 02:59:00,VALID,916.552,VALID,0,VALID,98.1602,VALID,0,VALID,18.6625,VALID,115,VALID,0.912829,
2001-11-27, 03:00:00,VALID,916.535,VALID,0,VALID,98.1717,VALID,0,VALID,18.6759,VALID,130,VALID,0.770898,
2001-11-27, 03:01:00,VALID,916.514,VALID,0,VALID,98.1755,VALID,0.0169808,VALID,18.6665,VALID,115,VALID,1.07187,
2001-11-27, 03:02:00,VALID,916.506,VALID,0,VALID,98.1602,VALID,0.0169808,VALID,18.6591,VALID,106,VALID,1.09475,
2001-11-27, 03:03:00,VALID,916.511,VALID,0,VALID,98.1666,VALID,0,VALID,18.6459,VALID,123,VALID,1.06785,
2001-11-27, 03:04:00,VALID,916.509,VALID,0,VALID,98.1895,VALID,0,VALID,18.6529,VALID,135,VALID,1.18574,
2001-11-27, 03:05:00,VALID,916.498,VALID,0,VALID,98.1971,VALID,0,VALID,18.6533,VALID,125,VALID,1.24668,
2001-11-27, 03:06:00,VALID,916.48,VALID,0,VALID,98.1984,VALID,0,VALID,18.6462,VALID,122,VALID,1.34014,
2001-11-27, 03:07:00,VALID,916.465,VALID,0,VALID,98.1882,VALID,0.0169808,VALID,18.663,VALID,125,VALID,0.799753,
2001-11-27, 03:08:00,VALID,916.441,VALID,0,VALID,98.2111,VALID,0.0169808,VALID,18.6531,VALID,130,VALID,0.844141,
2001-11-27, 03:09:00,VALID,916.423,VALID,0,VALID,98.2022,VALID,0,VALID,18.6561,VALID,127,VALID,0.880469,
2001-11-27, 03:10:00,VALID,916.406,VALID,0,VALID,98.2251,VALID,0,VALID,18.66,VALID,130,VALID,0.712941,
2001-11-27, 03:11:00,VALID,916.388,VALID,0,VALID,98.2187,VALID,0,VALID,18.6561,VALID,114,VALID,0.779605,
2001-11-27, 03:12:00,VALID,916.388,VALID,0,VALID,98.2327,VALID,0.0169808,VALID,18.6727,VALID,119,VALID,0.516016,
2001-11-27, 03:13:00,VALID,916.386,VALID,0,VALID,98.2404,VALID,0,VALID,18.669,VALID,137,VALID,0.694727,
2001-11-27, 03:14:00,VALID,916.38,VALID,0,VALID,98.2442,VALID,0.0169808,VALID,18.6787,VALID,125,VALID,0.76222,
2001-11-27, 03:15:00,VALID,916.371,VALID,0,VALID,98.2378,VALID,0,VALID,18.6755,VALID,134,VALID,0.773643,
2001-11-27, 03:16:00,VALID,916.353,VALID,0,VALID,98.2289,VALID,0,VALID,18.6918,VALID,115,VALID,0.696289,
2001-11-27, 03:17:00,VALID,916.345,VALID,0,VALID,98.2187,VALID,0,VALID,18.6918,VALID,136,VALID,0.842188,
2001-11-27, 03:18:00,VALID,916.339,VALID,0,VALID,98.1933,VALID,-0.0169808,VALID,18.7048,VALID,131,VALID,0.83754,
2001-11-27, 03:19:00,VALID,916.337,VALID,0,VALID,98.1882,VALID,0.0169808,VALID,18.705,VALID,146,VALID,1.08039,
2001-11-27, 03:20:00,VALID,916.33,VALID,0,VALID,98.1653,VALID,-0.0169808,VALID,18.7048,VALID,150,VALID,1.25234,
2001-11-27, 03:21:00,VALID,916.327,VALID,0,VALID,98.1335,VALID,0,VALID,18.7145,VALID,144,VALID,1.33848,
2001-11-27, 03:22:00,VALID,916.299,VALID,0,VALID,98.089,VALID,0,VALID,18.7209,VALID,136,VALID,1.11999,
2001-11-27, 03:23:00,VALID,916.275,VALID,0,VALID,98.075,VALID,0,VALID,18.741,VALID,125,VALID,0.580181,
2001-11-27, 03:24:00,VALID,916.255,VALID,0,VALID,98.0305,VALID,0.0169808,VALID,18.744,VALID,121,VALID,0.842383,
2001-11-27, 03:25:00,VALID,916.235,VALID,0,VALID,97.9924,VALID,0,VALID,18.7431,VALID,115,VALID,0.692773,
2001-11-27, 03:26:00,VALID,916.214,VALID,0,VALID,97.9708,VALID,0,VALID,18.7502,VALID,116,VALID,0.679087,
2001-11-27, 03:27:00,VALID,916.197,VALID,0,VALID,97.9136,VALID,0.0169808,VALID,18.7666,VALID,119,VALID,0.983347,
2001-11-27, 03:28:00,VALID,916.184,VALID,0,VALID,97.8919,VALID,0.0169808,VALID,18.7659,VALID,138,VALID,0.506055,
2001-11-27, 03:29:00,VALID,916.192,VALID,0,VALID,97.8627,VALID,0,VALID,18.7756,VALID,141,VALID,0.632031,
2001-11-27, 03:30:00,VALID,916.187,VALID,0,VALID,97.8487,VALID,0.0169808,VALID,18.7917,VALID,115,VALID,0.360777,
2001-11-27, 03:31:00,VALID,916.181,VALID,0,VALID,97.8118,VALID,0,VALID,18.792,VALID,114,VALID,0.487459,